Time,TemperatureF,DewpointF,PressureIn,WindDirection,WindDirectionDegrees,WindSpeedMPH,WindSpeedGustMPH,Humidity,HourlyPrecipIn,Conditions,Clouds,dailyrainin,SoftwareType,DateUTC
2013-12-25 00:02:00,9.0,8.0,-100.00,NNW,330,3.0,8.0,94,-99.99,,,-99.99,,2013-12-25 06:02:00,
2013-12-25 00:42:00,9.0,8.0,-100.00,West,260,5.0,10.0,94,-99.99,,,-99.99,,2013-12-25 06:42:00,
2013-12-25 00:52:00,9.0,8.0,-100.00,West,260,5.0,10.0,94,-99.99,,,-99.99,,2013-12-25 06:52:00,
2013-12-25 01:01:00,9.0,8.0,-100.00,West,260,5.0,10.0,94,-99.99,,,-99.99,,2013-12-25 07:01:00,
2013-12-25 01:22:00,9.0,8.0,-100.00,West,265,2.0,7.0,95,-99.99,,,-99.99,,2013-12-25 07:22:00,
2013-12-25 01:42:00,9.0,8.0,-100.00,West,275,7.0,12.0,95,-99.99,,,-99.99,,2013-12-25 07:42:00,
2013-12-25 01:52:00,9.0,8.0,-100.00,West,275,7.0,12.0,95,-99.99,,,-99.99,,2013-12-25 07:52:00,
2013-12-25 02:01:00,9.0,8.0,-100.00,West,275,7.0,12.0,95,-99.99,,,-99.99,,2013-12-25 08:01:00,
2013-12-25 02:42:00,9.0,8.0,-100.00,West,270,3.0,7.0,94,-99.99,,,-99.99,,2013-12-25 08:42:00,
2013-12-25 02:53:00,9.0,8.0,-100.00,West,270,3.0,7.0,94,-99.99,,,-99.99,,2013-12-25 08:53:00,
2013-12-25 03:02:00,9.0,8.0,-100.00,West,270,3.0,7.0,94,-99.99,,,-99.99,,2013-12-25 09:02:00,
2013-12-25 03:42:00,10.0,8.0,-100.00,West,280,5.0,9.0,91,-99.99,,,-99.99,,2013-12-25 09:42:00,
2013-12-25 03:52:00,10.0,8.0,-100.00,West,280,5.0,9.0,91,-99.99,,,-99.99,,2013-12-25 09:52:00,
2013-12-25 04:02:00,10.0,8.0,-100.00,West,280,5.0,9.0,91,-99.99,,,-99.99,,2013-12-25 10:02:00,
2013-12-25 04:43:00,10.0,8.0,-100.00,West,275,4.0,9.0,91,-99.99,,,-99.99,,2013-12-25 10:43:00,
2013-12-25 04:53:00,10.0,8.0,-100.00,West,275,4.0,9.0,91,-99.99,,,-99.99,,2013-12-25 10:53:00,
2013-12-25 05:02:00,10.0,8.0,-100.00,West,275,4.0,9.0,91,-99.99,,,-99.99,,2013-12-25 11:02:00,
2013-12-25 05:43:00,11.0,9.0,-100.00,WNW,285,4.0,8.0,91,-99.99,,,-99.99,,2013-12-25 11:43:00,
2013-12-25 05:52:00,11.0,9.0,-100.00,WNW,285,4.0,8.0,91,-99.99,,,-99.99,,2013-12-25 11:52:00,
2013-12-25 06:02:00,11.0,9.0,-100.00,WNW,285,4.0,8.0,91,-99.99,,,-99.99,,2013-12-25 12:02:00,
2013-12-25 06:42:00,11.0,9.0,-100.00,West,280,3.0,9.0,92,-99.99,,,-99.99,,2013-12-25 12:42:00,
2013-12-25 06:52:00,11.0,9.0,-100.00,West,280,3.0,9.0,92,-99.99,,,-99.99,,2013-12-25 12:52:00,
2013-12-25 07:02:00,11.0,9.0,-100.00,West,280,3.0,9.0,92,-99.99,,,-99.99,,2013-12-25 13:02:00,
2013-12-25 07:42:00,12.0,10.0,-100.00,WNW,285,3.0,8.0,93,-99.99,,,-99.99,,2013-12-25 13:42:00,
2013-12-25 07:52:00,12.0,10.0,-100.00,WNW,285,3.0,8.0,93,-99.99,,,-99.99,,2013-12-25 13:52:00,
2013-12-25 08:02:00,12.0,10.0,-100.00,WNW,285,3.0,8.0,93,-99.99,,,-99.99,,2013-12-25 14:02:00,
2013-12-25 08:42:00,13.0,11.0,-100.00,West,280,4.0,7.0,94,-99.99,,,-99.99,,2013-12-25 14:42:00,
2013-12-25 08:52:00,13.0,11.0,-100.00,West,280,4.0,7.0,94,-99.99,,,-99.99,,2013-12-25 14:52:00,
2013-12-25 09:02:00,13.0,11.0,-100.00,West,280,4.0,7.0,94,-99.99,,,-99.99,,2013-12-25 15:02:00,
2013-12-25 09:43:00,15.0,14.0,-100.00,West,280,3.0,6.0,95,-99.99,,,-99.99,,2013-12-25 15:43:00,
2013-12-25 09:54:00,15.0,14.0,-100.00,West,280,3.0,6.0,95,-99.99,,,-99.99,,2013-12-25 15:54:00,
2013-12-25 10:03:00,15.0,14.0,-100.00,West,280,3.0,6.0,95,-99.99,,,-99.99,,2013-12-25 16:03:00,
2013-12-25 10:23:00,17.0,15.0,-100.00,West,275,4.0,10.0,92,-99.99,,,-99.99,,2013-12-25 16:23:00,
2013-12-25 10:33:00,17.0,15.0,-100.00,West,275,4.0,10.0,92,-99.99,,,-99.99,,2013-12-25 16:33:00,
2013-12-25 10:42:00,17.0,15.0,-100.00,West,275,4.0,10.0,92,-99.99,,,-99.99,,2013-12-25 16:42:00,
2013-12-25 10:53:00,17.0,15.0,-100.00,West,275,4.0,10.0,92,-99.99,,,-99.99,,2013-12-25 16:53:00,
2013-12-25 11:02:00,17.0,15.0,-100.00,West,275,4.0,10.0,92,-99.99,,,-99.99,,2013-12-25 17:02:00,
2013-12-25 11:42:00,20.0,17.0,-100.00,WSW,255,1.0,7.0,85,-99.99,,,-99.99,,2013-12-25 17:42:00,
2013-12-25 11:52:00,20.0,17.0,-100.00,WSW,255,1.0,7.0,85,-99.99,,,-99.99,,2013-12-25 17:52:00,
2013-12-25 12:02:00,20.0,17.0,-100.00,WSW,255,1.0,7.0,85,-99.99,,,-99.99,,2013-12-25 18:02:00,
2013-12-25 12:42:00,23.0,17.0,-100.00,WSW,255,6.0,10.0,76,-99.99,,,-99.99,,2013-12-25 18:42:00,
2013-12-25 12:52:00,23.0,17.0,-100.00,WSW,255,6.0,10.0,76,-99.99,,,-99.99,,2013-12-25 18:52:00,
2013-12-25 13:01:00,23.0,17.0,-100.00,WSW,255,6.0,10.0,76,-99.99,,,-99.99,,2013-12-25 19:01:00,
2013-12-25 13:42:00,21.0,16.0,-100.00,WSW,250,5.0,7.0,79,-99.99,,,-99.99,,2013-12-25 19:42:00,
2013-12-25 13:52:00,21.0,16.0,-100.00,WSW,250,5.0,7.0,79,-99.99,,,-99.99,,2013-12-25 19:52:00,
2013-12-25 14:01:00,21.0,16.0,-100.00,WSW,250,5.0,7.0,79,-99.99,,,-99.99,,2013-12-25 20:01:00,
2013-12-25 14:42:00,22.0,17.0,-100.00,West,280,1.0,6.0,82,-99.99,,,-99.99,,2013-12-25 20:42:00,
2013-12-25 14:52:00,22.0,17.0,-100.00,West,280,1.0,6.0,82,-99.99,,,-99.99,,2013-12-25 20:52:00,
2013-12-25 15:02:00,22.0,17.0,-100.00,West,280,1.0,6.0,82,-99.99,,,-99.99,,2013-12-25 21:02:00,
2013-12-25 15:43:00,21.0,17.0,-100.00,West,265,4.0,6.0,85,-99.99,,,-99.99,,2013-12-25 21:43:00,
2013-12-25 15:53:00,21.0,17.0,-100.00,West,265,4.0,6.0,85,-99.99,,,-99.99,,2013-12-25 21:53:00,
2013-12-25 16:03:00,21.0,17.0,-100.00,West,265,4.0,6.0,85,-99.99,,,-99.99,,2013-12-25 22:03:00,
2013-12-25 16:43:00,21.0,19.0,-100.00,WSW,255,4.0,7.0,90,-99.99,,,-99.99,,2013-12-25 22:43:00,
2013-12-25 16:53:00,21.0,19.0,-100.00,WSW,255,4.0,7.0,90,-99.99,,,-99.99,,2013-12-25 22:53:00,
2013-12-25 17:02:00,21.0,19.0,-100.00,WSW,255,4.0,7.0,90,-99.99,,,-99.99,,2013-12-25 23:02:00,
2013-12-25 17:43:00,22.0,20.0,-100.00,SSW,195,2.0,8.0,93,-99.99,,,-99.99,,2013-12-25 23:43:00,
2013-12-25 17:52:00,22.0,20.0,-100.00,SSW,195,2.0,8.0,93,-99.99,,,-99.99,,2013-12-25 23:52:00,
2013-12-25 18:01:00,22.0,20.0,-100.00,SSW,195,2.0,8.0,93,-99.99,,,-99.99,,2013-12-26 00:01:00,
2013-12-25 18:42:00,22.0,21.0,-100.00,SSW,195,1.0,4.0,95,-99.99,,,-99.99,,2013-12-26 00:42:00,
2013-12-25 18:52:00,22.0,21.0,-100.00,SSW,195,1.0,4.0,95,-99.99,,,-99.99,,2013-12-26 00:52:00,
2013-12-25 19:01:00,22.0,21.0,-100.00,SSW,195,1.0,4.0,95,-99.99,,,-99.99,,2013-12-26 01:01:00,
2013-12-25 19:42:00,22.0,21.0,-100.00,SSW,195,2.0,4.0,96,-99.99,,,-99.99,,2013-12-26 01:42:00,
2013-12-25 19:52:00,22.0,21.0,-100.00,SSW,195,2.0,4.0,96,-99.99,,,-99.99,,2013-12-26 01:52:00,
2013-12-25 20:02:00,22.0,21.0,-100.00,SSW,195,2.0,4.0,96,-99.99,,,-99.99,,2013-12-26 02:02:00,
2013-12-25 20:52:00,22.0,19.0,-100.00,South,185,12.0,18.0,90,-99.99,,,-99.99,,2013-12-26 02:52:00,
2013-12-25 21:02:00,22.0,19.0,-100.00,South,185,12.0,18.0,90,-99.99,,,-99.99,,2013-12-26 03:02:00,
2013-12-25 21:43:00,21.0,17.0,-100.00,SSE,165,9.0,17.0,86,-99.99,,,-99.99,,2013-12-26 03:43:00,
2013-12-25 21:53:00,21.0,17.0,-100.00,SSE,165,9.0,17.0,86,-99.99,,,-99.99,,2013-12-26 03:53:00,
2013-12-25 22:03:00,21.0,17.0,-100.00,SSE,165,9.0,17.0,86,-99.99,,,-99.99,,2013-12-26 04:03:00,
2013-12-25 22:43:00,20.0,15.0,-100.00,SSE,165,7.0,12.0,82,-99.99,,,-99.99,,2013-12-26 04:43:00,
2013-12-25 22:52:00,20.0,15.0,-100.00,SSE,165,7.0,12.0,82,-99.99,,,-99.99,,2013-12-26 04:52:00,
2013-12-25 23:02:00,20.0,15.0,-100.00,SSE,165,7.0,12.0,82,-99.99,,,-99.99,,2013-12-26 05:02:00,
2013-12-25 23:43:00,18.0,12.0,-100.00,SSE,160,9.0,13.0,78,-99.99,,,-99.99,,2013-12-26 05:43:00,
2013-12-25 23:53:00,18.0,12.0,-100.00,SSE,160,9.0,13.0,78,-99.99,,,-99.99,,2013-12-26 05:53:00,